Weather History for KJER - August, 2013

Change the Weather History Date:

Thursday, August 29, 2013

  Actual Average Record
Temperature  
Mean Temperature 78 °F 67 °F  
Max Temperature 92 °F 83 °F 100 °F (1948)
Min Temperature 63 °F 52 °F 37 °F (1965)
Degree Days  
Heating Degree Days 0 2  
Month to date heating degree days 0 14  
Since 1 June heating degree days 78 133  
Since 1 July heating degree days 0 26  
Cooling Degree Days 13 4  
Month to date cooling degree days 282 174  
Year to date cooling degree days 803 457  
Since 1 June cooling degree days 788 444  
Growing Degree Days 26 (Base 50)    
Moisture  
Dew Point 53 °F    
Average Humidity 51    
Maximum Humidity 78    
Minimum Humidity 24    
Precipitation  
Precipitation 0.00 in 0.01 in 0.13 in (2002)
Month to date precipitation T 0.23  
Year to date precipitation 2.52 6.83  
Sea Level Pressure  
Sea Level Pressure 29.96 in    
Wind  
Wind Speed 6 mph (ENE)    
Max Wind Speed 17 mph    
Max Gust Speed 22 mph    
Visibility 10 miles    
Events      
T = Trace of Precipitation, MM = Missing Value Source: NWS Daily Summary

Daily Weather History Graph

Daily Weather History Graph

Search for Another Location

Airport or City:

Trip Planner

Search our weather history database for the weather conditions in past years. The results will help you decide how hot, cold, wet, or windy it might be!

Date:

Astronomy

Aug. 29, 2013 Rise Set
Actual Time 6:59 AM MDT 8:16 PM MDT
Civil Twilight 6:30 AM MDT 8:45 PM MDT
Nautical Twilight 5:55 AM MDT 9:20 PM MDT
Astronomical Twilight 5:18 AM MDT 9:57 PM MDT
Moon 12:50 AM MDT (8/29) 3:53 PM MDT (8/29)
Length of Visible Light 14h 15m
Length of Day
13h 17m
Last Quarter, 37% of the Moon is Illuminated
Aug 29
Last Quarter
Sep 5
New
Sep 12
First Quarter
Sep 19
Full
Sep 26
Last Quarter

Hourly Weather History & Observations

Time (MDT) Temp. Heat Index Dew Point Humidity Pressure Visibility Wind Dir Wind Speed Gust Speed Precip Events Conditions
12:53 AM 71.1 °F - 51.1 °F 49% 29.93 in 10.0 mi ENE 10.4 mph - N/A   Clear
1:53 AM 70.0 °F - 51.1 °F 51% 29.93 in 10.0 mi ENE 9.2 mph - N/A   Clear
2:53 AM 66.0 °F - 52.0 °F 60% 29.94 in 10.0 mi ENE 5.8 mph - N/A   Clear
3:53 AM 64.0 °F - 52.0 °F 65% 29.95 in 10.0 mi NNE 10.4 mph - N/A   Clear
4:53 AM 68.0 °F - 53.1 °F 59% 29.95 in 10.0 mi Calm Calm - N/A   Scattered Clouds
5:53 AM 64.9 °F - 54.0 °F 68% 29.97 in 10.0 mi ENE 6.9 mph - N/A   Clear
6:53 AM 63.0 °F - 55.0 °F 75% 29.95 in 10.0 mi NE 12.7 mph - N/A   Partly Cloudy
7:53 AM 69.1 °F - 53.1 °F 57% 29.98 in 10.0 mi East 10.4 mph - N/A   Clear
8:53 AM 69.1 °F - 54.0 °F 58% 30.01 in 10.0 mi ENE 11.5 mph - N/A   Partly Cloudy
9:53 AM 75.9 °F - 54.0 °F 46% 30.01 in 10.0 mi ENE 12.7 mph - N/A   Clear
10:53 AM 81.0 °F 80.5 °F 54.0 °F 39% 30.00 in 10.0 mi East 8.1 mph - N/A   Clear
11:53 AM 84.0 °F - 48.9 °F 29% 29.99 in 10.0 mi East 5.8 mph - N/A   Clear
12:53 PM 82.0 °F 81.7 °F 57.0 °F 42% 29.99 in 10.0 mi Calm Calm - N/A   Clear
1:53 PM 86.0 °F 84.0 °F 53.1 °F 32% 29.97 in 10.0 mi NNE 4.6 mph - N/A   Partly Cloudy
2:53 PM 90.0 °F - 48.9 °F 24% 29.96 in 10.0 mi WNW 5.8 mph - N/A   Clear
3:53 PM 90.0 °F 87.5 °F 53.1 °F 28% 29.94 in 10.0 mi West 8.1 mph - N/A   Clear
4:53 PM 90.0 °F - 52.0 °F 27% 29.93 in 10.0 mi WNW 4.6 mph - N/A   Clear
5:53 PM 89.1 °F 88.2 °F 59.0 °F 36% 29.92 in 10.0 mi NNE 3.5 mph - N/A   Clear
6:53 PM 88.0 °F 87.1 °F 59.0 °F 37% 29.92 in 10.0 mi Calm Calm - N/A   Clear
7:53 PM 78.1 °F - 57.0 °F 48% 29.93 in 10.0 mi Calm Calm - N/A   Clear
8:53 PM 73.9 °F - 54.0 °F 50% 29.95 in 10.0 mi Calm Calm - N/A   Clear
9:53 PM 75.0 °F - 52.0 °F 44% 29.96 in 10.0 mi SE 5.8 mph - N/A   Clear
10:53 PM 70.0 °F - 54.0 °F 57% 29.97 in 10.0 mi SE 5.8 mph - N/A   Clear
11:53 PM 71.1 °F - 50.0 °F 47% 29.97 in 10.0 mi Calm Calm - N/A   Clear